Theta_e
335 337 338 342 345 347 346 346 343 344 342 340 338 336 334 335 333 333 334 335 336 336 335 336 335 335 335 335 334 337 335 333 332
332 333 335 337 340 344 346 345 342 344 343 340 337 334 331 332 332 333 334 332 335 336 336 334 336 337 336 335 335 333 334 333 333
327 330 332 334 336 339 342 345 342 341 342 340 336 332 333 331 332 332 333 336 334 335 336 334 336 334 334 333 334 333 333 331 333
322 324 328 330 331 334 337 340 343 339 338 340 335 331 330 332 331 331 332 336 336 335 334 336 333 334 333 333 334 332 332 331 332
317 318 321 325 327 330 333 335 339 341 337 341 335 331 330 332 332 333 334 339 338 338 336 332 331 334 332 333 331 332 331 329 331
314 314 316 319 322 325 328 330 330 335 337 339 334 330 335 334 332 334 337 336 335 335 332 331 333 331 332 331 332 330 328 329 328
310 312 312 316 318 319 323 324 324 324 330 337 332 334 335 334 333 333 334 336 333 334 334 332 330 329 331 331 330 328 327 326 325
308 310 312 314 314 317 316 317 319 320 322 331 336 335 334 334 333 331 333 335 333 332 329 328 326 330 329 329 328 325 325 324 324
305 306 309 311 312 315 317 314 316 318 320 326 328 333 333 333 333 331 332 337 334 330 328 328 329 328 327 326 326 322 323 322 323
304 305 305 307 310 312 315 316 315 317 318 321 325 326 331 332 333 333 329 334 335 331 330 328 327 326 327 325 324 322 323 321 322
303 303 304 305 307 307 312 315 318 317 318 318 322 322 326 332 331 332 332 331 334 334 330 328 329 326 326 325 324 321 321 321 321
301 302 302 304 306 307 310 313 317 321 323 322 322 321 320 325 330 332 333 332 329 333 330 327 328 327 326 326 325 321 321 321 320
300 300 301 303 304 305 307 310 312 317 319 322 324 320 320 320 322 329 332 332 331 329 332 331 327 327 326 327 326 324 322 321 321
298 298 299 301 302 302 304 308 310 310 313 315 323 322 319 320 322 322 326 330 331 331 328 328 329 329 326 327 327 327 324 322 322
296 297 297 299 300 300 301 304 309 310 310 313 320 319 319 319 319 319 322 324 328 330 328 329 327 327 327 325 327 330 328 324 323
294 295 295 297 297 298 299 301 303 308 308 311 313 318 318 317 318 319 318 319 320 324 325 325 327 327 327 326 324 325 327 329 326
292 293 293 294 295 296 297 299 300 303 303 302 303 312 314 317 317 316 316 315 317 317 319 320 321 324 326 324 325 323 325 326 327
291 291 292 293 294 294 295 297 295 296 301 302 301 302 304 311 318 316 314 314 314 315 316 319 319 319 320 322 323 322 323 324 325
290 290 291 291 292 292 294 296 296 297 295 301 300 301 302 299 307 314 312 313 313 313 314 314 315 316 318 318 316 318 321 322 324
288 289 289 290 291 291 292 294 295 296 295 295 297 298 300 300 300 302 306 309 312 311 313 314 313 314 315 316 317 317 319 322 324
Wind_Speed
23 23 22 19 18 14 5 8 6 6 8 9 9 9 5 4 8 8 7 11 10 9 12 11 13 13 13 13 13 15 16 15 13
22 23 23 21 19 18 13 5 5 6 7 8 8 7 3 6 7 7 10 7 8 9 11 11 11 13 13 13 14 14 14 14 14
21 21 22 22 20 19 16 7 5 5 6 6 6 5 1 4 6 6 9 8 8 9 11 9 12 11 12 13 12 14 13 13 15
19 21 22 21 21 20 18 16 4 4 3 7 6 4 2 4 5 4 6 6 8 9 9 11 11 9 11 12 12 13 13 13 13
17 19 21 21 21 20 18 17 16 6 3 6 6 4 3 5 4 3 6 8 11 11 10 10 8 10 10 10 12 11 12 11 12
12 15 18 19 20 21 19 18 17 10 3 4 6 6 0 2 2 2 3 6 9 8 7 8 8 9 9 10 11 10 10 11 10
10 10 15 16 19 19 20 19 16 12 7 4 5 5 2 1 2 3 3 6 7 8 10 7 6 8 8 10 9 10 9 9 8
7 6 7 8 14 9 11 10 8 8 5 6 4 4 4 2 1 5 1 4 6 6 6 4 3 7 8 8 9 7 8 7 8
8 7 8 8 8 10 8 6 8 10 8 6 7 5 4 3 2 5 1 1 8 5 4 3 5 5 5 6 6 4 6 5 7
7 8 8 7 8 9 8 8 6 7 9 7 3 6 6 5 2 2 3 1 4 6 6 3 2 3 6 4 5 3 4 4 6
7 7 7 8 8 7 8 8 8 6 4 7 4 3 5 5 4 3 5 2 2 8 6 4 4 2 1 3 4 3 4 4 5
7 6 7 8 7 9 8 8 8 7 7 6 5 1 3 4 4 4 3 5 3 3 6 3 2 4 3 1 4 1 3 4 4
7 7 7 8 7 8 8 8 8 9 9 9 6 3 1 1 3 4 3 3 2 4 2 7 4 4 3 3 4 4 3 2 6
7 7 7 8 7 8 8 7 7 7 9 8 7 4 2 3 2 3 4 4 3 2 5 2 1 4 2 3 4 4 5 4 4
6 6 7 8 7 8 9 9 8 7 10 6 6 5 3 2 3 5 4 5 5 3 3 2 2 2 3 2 7 8 5 6 5
8 6 7 7 8 9 11 8 9 8 12 5 6 6 6 4 3 4 4 4 6 6 4 4 4 2 4 3 3 7 11 10 8
7 8 7 8 7 9 10 11 7 5 9 5 2 1 5 8 7 4 5 6 3 4 6 6 6 5 5 7 4 4 9 12 14
8 9 8 8 7 7 9 9 10 6 5 8 4 4 4 4 3 8 6 5 4 3 4 6 5 5 4 5 6 7 7 10 13
8 8 9 8 7 8 7 7 6 7 6 3 6 3 2 4 2 3 6 6 6 6 4 1 4 6 5 6 8 10 9 11 13
8 9 8 8 7 8 9 8 8 6 5 5 4 3 3 6 4 3 6 4 7 6 4 5 6 4 6 6 7 9 11 15 16
Wind_Direction
27 25 21 19 17 9 110 107 100 111 99 88 83 81 79 283 67 75 73 60 76 82 83 90 85 84 84 77 78 80 76 78 74
28 26 24 22 17 14 10 126 115 102 118 104 89 81 20 51 69 77 79 84 83 84 88 78 83 84 86 87 79 83 79 76 71
24 25 25 24 19 18 14 358 146 129 134 117 105 96 350 68 68 72 81 83 85 84 89 101 86 85 88 86 82 79 78 70 71
22 20 22 24 21 18 17 13 233 161 151 139 124 105 338 40 68 76 102 140 115 105 106 93 92 85 88 90 84 84 81 78 75
21 18 18 22 23 20 19 18 8 173 161 155 141 131 228 72 88 78 78 116 91 108 102 83 100 90 89 87 85 79 81 75 72
16 18 12 17 20 21 20 20 16 12 150 156 157 190 285 88 89 87 76 118 105 98 107 103 96 94 93 90 83 82 81 73 68
10 13 14 13 10 19 17 18 16 15 337 176 173 235 210 177 135 93 58 104 108 113 93 107 102 107 85 88 90 74 71 66 67
18 9 10 10 4 16 6 10 7 360 352 317 241 235 228 214 177 117 335 184 117 99 83 103 102 97 95 86 87 81 80 74 63
19 15 10 11 3 2 10 357 356 356 355 340 300 249 238 225 199 128 139 206 132 116 125 94 89 86 83 85 81 77 76 69 68
16 18 16 8 3 358 355 356 342 353 352 340 288 288 254 233 210 217 141 217 159 142 144 126 145 82 92 71 70 40 63 54 56
19 18 16 12 5 358 338 344 345 347 344 339 327 279 288 249 229 225 167 224 160 141 137 143 141 142 126 113 86 24 360 22 38
17 21 18 10 2 354 353 349 350 350 0 19 323 268 283 309 246 236 247 167 215 182 152 158 199 155 110 154 130 56 329 2 356
19 22 15 6 7 3 360 359 352 359 345 354 4 357 216 157 336 301 254 247 249 174 181 172 191 190 206 221 178 174 274 3 321
24 17 13 7 14 15 0 0 8 359 341 335 354 3 51 71 107 55 1 317 289 283 122 291 236 183 266 302 240 220 200 179 303
32 27 21 17 18 16 8 3 4 11 349 330 2 22 39 48 58 77 43 340 341 300 321 287 197 176 197 342 340 334 242 229 216
30 32 28 23 28 20 15 3 4 18 360 359 5 70 50 29 53 76 75 40 11 345 358 329 312 288 215 216 276 308 321 327 258
33 32 30 29 28 27 21 18 8 7 19 10 313 293 98 58 49 46 61 78 40 26 9 336 328 335 335 336 249 270 304 310 319
31 35 35 35 33 29 22 23 24 10 3 25 10 343 15 316 73 54 28 37 92 83 39 339 307 303 300 302 272 243 258 278 291
35 34 34 35 33 33 23 21 29 23 21 347 17 4 353 356 4 78 24 4 6 16 45 330 322 315 294 276 277 288 250 254 275
36 33 31 33 31 27 25 22 26 31 36 23 353 2 345 14 42 321 342 342 354 353 14 348 340 335 334 307 287 259 275 269 267